Location: Coleto Creek Park and Reservoir
(28.7196°N, 97.1740°W)
Time: 17:07:28
(UTC-06:00)

Hubble Space Telescope - Visible Passes

Search period start: 20 November 2017 00:00
Search period end: 30 November 2017 00:00
Orbit: 537 x 541 km, 28.5° (Epoch: 20 November)

Date Brightness Start Highest point End Pass type
(mag) Time Alt. Az. Time Alt. Az. Time Alt. Az.
20 Nov 2.2 04:45:22 36° E 04:45:22 36° E 04:47:57 10° E visible
20 Nov 0.8 06:20:55 10° W 06:25:03 88° S 06:29:12 10° E visible
21 Nov 2.8 04:35:52 26° E 04:35:52 26° E 04:37:46 10° E visible
21 Nov 0.8 06:11:14 13° W 06:14:51 84° S 06:19:00 10° E visible
22 Nov 3.4 04:26:19 19° E 04:26:19 19° E 04:27:34 10° E visible
22 Nov 0.8 06:01:41 18° W 06:04:40 79° S 06:08:48 10° E visible
23 Nov 3.8 04:16:45 14° E 04:16:45 14° E 04:17:23 10° E visible
23 Nov 0.8 05:52:07 24° W 05:54:28 72° S 05:58:34 10° ESE visible
24 Nov 4.1 04:07:10 10° E 04:07:10 10° E 04:07:12 10° E visible
24 Nov 0.9 05:42:32 32° W 05:44:15 63° SSW 05:48:20 10° ESE visible
25 Nov 1.1 05:32:57 40° WSW 05:34:02 54° SSW 05:38:03 10° ESE visible
26 Nov 1.3 05:23:23 43° SW 05:23:48 45° SSW 05:27:44 10° ESE visible
27 Nov 1.7 05:13:50 36° S 05:13:50 36° S 05:17:22 10° SE visible
28 Nov 2.4 05:04:18 27° S 05:04:18 27° S 05:06:55 10° SE visible
29 Nov 3.0 04:54:48 18° SSE 04:54:48 18° SSE 04:56:22 10° SSE visible
